Location: Beaver Brook Trail
(44.0290°N, 71.8137°W)
Time: 00:29:23
(UTC+00:00)

Explorer 7 - Visible Passes

Search period start: 17 December 2025 00:00
Search period end: 27 December 2025 00:00
Orbit: 435 x 553 km, 50.3° (Epoch: 16 December)

Date Brightness Start Highest point End Pass type
(mag) Time Alt. Az. Time Alt. Az. Time Alt. Az.
17 Dec 7.2 21:45:49 10° W 21:49:15 41° NNW 21:52:36 10° NE visible
17 Dec 8.3 23:25:14 10° WNW 23:27:10 23° NNW 23:27:10 23° NNW visible
18 Dec 7.7 23:01:38 10° WNW 23:04:35 28° N 23:04:35 28° N visible
19 Dec 7.6 22:38:01 10° WNW 22:41:10 29° N 22:42:00 25° NNE visible
20 Dec 7.6 22:14:24 10° WNW 22:17:33 29° N 22:19:27 18° NE visible
20 Dec 9.1 23:53:06 10° WNW 23:53:57 16° NW 23:53:57 16° NW visible
21 Dec 7.6 21:50:44 10° WNW 21:53:55 29° N 21:56:57 10° ENE visible
21 Dec 8.0 23:29:28 10° WNW 23:31:27 30° NW 23:31:27 30° NW visible
22 Dec 6.6 23:05:48 10° WNW 23:09:01 54° N 23:09:01 54° N visible
23 Dec 6.5 22:42:07 10° WNW 22:45:38 56° NNE 22:46:41 38° E visible
24 Dec 9.8 00:20:59 10° W 00:21:12 11° W 00:21:12 11° W visible
24 Dec 6.5 22:18:26 10° WNW 22:21:57 55° NNE 22:24:29 17° E visible
24 Dec 8.9 23:57:17 10° W 23:59:01 21° WSW 23:59:01 21° WSW visible
25 Dec 6.5 21:54:43 10° WNW 21:58:15 55° NNE 22:01:42 10° ESE visible
25 Dec 8.1 23:33:34 10° W 23:36:38 28° SW 23:37:01 27° SSW visible
26 Dec 8.3 23:09:50 10° W 23:12:55 28° SW 23:15:18 14° SSE visible
